Regional Weather Roundup
Issued by NWS Goodland, KS

Home | Current Version | Previous Version | Graphics & Text | Print | Product List | Glossary On
Versions: 1 2 3 4 5 6 7 8 9 10 11 12 13 14 15 16 17 18 19 20 21 22 23 24 25 26 27 28 29 30 31 32 33 34 35 36 37 38 39 40 41 42 43 44 45 46 47 48 49 50
000
ASUS43 KGLD 241008
RWRGLD

GOODLAND FORECAST AREA HOURLY WEATHER ROUNDUP
NATIONAL WEATHER SERVICE GOODLAND KS
400 AM MDT TUE MAY 24 2016

...OFFICIAL OBSERVATIONS...

CITY           SKY/WX    TMP DP  RH WIND       PRES   REMARKS
GOODLAND KS    CLOUDY    56  43  61 N16       29.86R
HILL CITY KS   TSTM      59  58  96 E8G28     29.83S FOG
IMPERIAL NEB   LGT RAIN  55  49  80 E22       29.84F
MCCOOK NEB     CLOUDY    55  49  80 N7        29.88R
AKRON CO       CLOUDY    47  44  90 NW8       29.90R
BURLINGTON CO  CLOUDY    55  42  61 N14       29.87S
LIMON CO       CLOUDY    49  43  80 NW8       29.94R
$$

...UNOFFICIAL OBSERVATIONS...

CITY           SKY/WX    TMP DP  RH WIND       PRES   REMARKS
COLBY KS       MOCLDY    55  52  88 N13       29.88R
LENORA KS        N/A     58  32  37 MISG        N/A
NORTON KS      LGT RAIN  61  55  82 E8        29.84R
SHARON SPRINGS   N/A     58  54  88 N8G15       N/A
KIT CARSON CO    N/A     54  42  65 MISG        N/A
YUMA CO          N/A     54  51  89 CALM        N/A
$$




USA.gov is the U.S. government's official web portal to all federal, state and local government web resources and services.